TimeCST,TemperatureF,Dew PointF,Humidity,Sea Level PressureIn,VisibilityMPH,Wind Direction,Wind SpeedMPH,Gust SpeedMPH,PrecipitationIn,Events,Conditions,WindDirDegrees,DateUTC
12:56 AM,43.0,34.9,73,30.24,10.0,SSE,12.7,-,N/A,,Clear,150,2013-11-04 06:56:00
1:56 AM,43.9,34.9,71,30.25,10.0,SSE,15.0,-,N/A,,Clear,160,2013-11-04 07:56:00
2:56 AM,43.0,36.0,76,30.24,10.0,SSE,16.1,-,N/A,,Clear,160,2013-11-04 08:56:00
3:56 AM,43.0,36.0,76,30.22,10.0,SE,15.0,-,N/A,,Clear,140,2013-11-04 09:56:00
4:56 AM,43.0,36.9,79,30.24,10.0,SSE,16.1,-,N/A,,Clear,150,2013-11-04 10:56:00
5:56 AM,43.0,36.9,79,30.24,10.0,SSE,17.3,-,N/A,,Clear,160,2013-11-04 11:56:00
6:56 AM,43.9,36.9,76,30.22,10.0,SSE,17.3,24.2,N/A,,Clear,150,2013-11-04 12:56:00
7:56 AM,43.9,37.9,80,30.24,10.0,SSE,21.9,-,N/A,,Clear,160,2013-11-04 13:56:00
8:56 AM,45.9,37.9,74,30.23,10.0,SSE,17.3,-,N/A,,Clear,160,2013-11-04 14:56:00
9:56 AM,48.9,38.8,68,30.23,10.0,South,19.6,24.2,N/A,,Clear,170,2013-11-04 15:56:00
10:56 AM,54.0,38.8,57,30.20,10.0,South,19.6,-,N/A,,Clear,180,2013-11-04 16:56:00
11:56 AM,54.9,39.9,57,30.18,10.0,South,23.0,27.6,N/A,,Clear,180,2013-11-04 17:56:00
12:56 PM,55.9,41.0,57,30.16,10.0,South,21.9,31.1,N/A,,Clear,190,2013-11-04 18:56:00
1:56 PM,55.9,41.9,59,30.15,10.0,South,27.6,31.1,N/A,,Partly Cloudy,190,2013-11-04 19:56:00
2:56 PM,55.9,41.9,59,30.14,10.0,South,19.6,-,N/A,,Mostly Cloudy,190,2013-11-04 20:56:00
3:56 PM,54.9,43.0,64,30.15,10.0,South,16.1,25.3,N/A,,Scattered Clouds,190,2013-11-04 21:56:00
4:56 PM,54.0,41.9,64,30.15,10.0,South,23.0,28.8,N/A,,Mostly Cloudy,190,2013-11-04 22:56:00
5:56 PM,52.9,43.0,69,30.19,10.0,SSW,16.1,-,N/A,,Overcast,200,2013-11-04 23:56:00
6:56 PM,52.9,43.0,69,30.20,10.0,SSW,15.0,-,N/A,,Overcast,200,2013-11-05 00:56:00
7:56 PM,52.9,43.9,71,30.21,10.0,South,15.0,-,N/A,,Overcast,190,2013-11-05 01:56:00
8:56 PM,52.0,43.9,74,30.22,10.0,South,12.7,-,N/A,,Overcast,190,2013-11-05 02:56:00
9:56 PM,52.0,43.9,74,30.23,10.0,SSW,13.8,-,N/A,,Overcast,200,2013-11-05 03:56:00
10:56 PM,52.0,43.9,74,30.23,10.0,SSW,16.1,-,N/A,,Overcast,210,2013-11-05 04:56:00
11:56 PM,50.9,43.9,77,30.24,10.0,SSW,12.7,-,N/A,,Overcast,210,2013-11-05 05:56:00